Home   Weather   40°46'N, 73°06'W   Past weeks
Flag for USA

Past Weather in 40°46'N, 73°06'W, USA — Yesterday and Last 2 Weeks

Now
59 °F

Sunny.


Feels Like: N/A
Forecast: 61 / 49 °F
Wind: N/A

Location: Republic Airport

Current Time: Oct 15, 2019 at 12:27:57 pm

Latest Report: Oct 15, 2019 at 11:53 am


Visibility: 10 mi

Pressure: 30.17 "Hg

Humidity: 42%

Dew Point: 36 °F

Location of 40°46'N, 73°06'WLocation

Past Weather in 40°46'N, 73°06'W — Graph

°F

40°46'N, 73°06'W Temperature Yesterday

Maximum temperature yesterday: 70 °F (at 3:53 pm)
Minimum temperature yesterday: 56 °F (at 6:39 am)
Average temperature yesterday: 60 °F

High & Low Weather Summary for the Past Weeks

 TemperatureHumidityPressure
High90 °F (Oct 2, 1:53 pm)100% (Oct 3, 12:08 pm)30.46 "Hg (Oct 3, 12:08 pm)
Low43 °F (Oct 5, 6:53 am)38% (Oct 10, 5:53 pm)29.73 "Hg (Oct 2, 2:53 pm)
Average61 °F73%30.11 "Hg
* Reported Sep 30 10:53 am — Oct 15 10:53 am, 40°46'N, 73°06'W. Weather by CustomWeather, © 2019

Note: Actual official high and low records may vary slightly from our data, if they occured in-between our weather recording intervals... More about our weather records

Advertising

40°46'N, 73°06'W Weather History for the Previous 24 Hours

Scroll right to see more
 ConditionsComfort  
Time TempWeatherWind HumidityBarometerVisibility
10:53 am
Tue, Oct 15
59 °FSunny.7 mph42%30.18 "Hg10 mi
9:53 am57 °FSunny.8 mph53%30.18 "Hg10 mi
8:53 am55 °FSunny.7 mph64%30.17 "Hg10 mi
7:53 am49 °FSunny.No wind80%30.16 "Hg9 mi
6:53 am46 °FClear.No wind86%30.14 "Hg10 mi
5:53 am47 °FClear.No wind83%30.13 "Hg10 mi
4:53 am48 °FClear.No wind80%30.11 "Hg10 mi
3:53 am51 °FClear.3 mph74%30.10 "Hg10 mi
2:53 am53 °FClear.5 mph69%30.09 "Hg10 mi
1:53 am54 °FClear.6 mph74%30.08 "Hg10 mi
12:53 am56 °FClear.7 mph72%30.05 "Hg10 mi
11:53 pm
Mon, Oct 14
56 °FClear.No wind84%30.02 "Hg10 mi
10:53 pm57 °FClear.No wind87%30.02 "Hg10 mi
9:53 pm58 °FClear.No wind90%30.00 "Hg10 mi
8:53 pm60 °FClear.No wind90%29.98 "Hg10 mi
7:53 pm62 °FClear.6 mph86%29.96 "Hg10 mi
6:53 pm62 °FPassing clouds.7 mph83%29.95 "Hg10 mi
5:53 pm63 °FSunny.12 mph78%29.92 "Hg10 mi
4:53 pm65 °FSunny.13 mph70%29.91 "Hg10 mi
3:53 pm70 °FSunny.9 mph49%29.91 "Hg10 mi
2:53 pm68 °FSunny.6 mph59%29.91 "Hg10 mi
1:53 pm68 °FSunny.12 mph61%29.93 "Hg10 mi
12:53 pm68 °FSunny.9 mph61%29.96 "Hg10 mi
12:02 pm65 °FPartly sunny.No wind66%29.98 "Hg10 mi
Weather by CustomWeather, © 2019

See weather overview